カタログに戻る

STARLINK-37992

運用中通信SSO
NORAD 69681·PAYLOAD·🇺🇸 United States

打ち上げ Jun 25, 2026 から Vandenberg Space Force Base

Loading…

次のパス (今後24時間)

TLE

最新Source: CelesTrak SupGP

元期: Sep 15, 2026, 03:41 UTC

1 69681C 26145E   26258.15395833 -.00035190  00000+0 -10921-2 0  2580
2 69681  97.2851 104.8480 0002359  94.4407 166.2634 15.33462800    17

AllMySatでSTARLINK-37992をリアルタイム追跡

Download on the App Store